Simultaneous Nadir Overpasses (SNOs) Predictions

Prediction of SNOs near equator between AQUA and NPP Satellite Orbit:

Table of predicted SNOs near equator for the next 14.0 days since TLE Epoch: 6/14/2019
Index Date (AQUA) Time (AQUA) AQUA Lat,Lon Date (NPP) Time (NPP) NPP Lat,Lon Distance(km) Time Diff (sec)
1 06/15/2019 07:56:51 20.29, 81.65 06/15/2019 07:46:51 20.33, 81.29 38.68 600
2 06/15/2019 08:41:12 -2.13,-106.70 06/15/2019 08:32:20 -2.02,-107.15 51.12 532
3 06/15/2019 09:29:28 -2.43, 61.89 06/15/2019 09:21:51 -2.58, 61.18 80.54 457
4 06/18/2019 00:09:07 5.06,-159.10 06/17/2019 23:59:26 4.99,-159.37 31.15 581
5 06/18/2019 00:57:13 -0.49, 9.53 06/18/2019 00:48:48 -0.36, 8.99 61.36 505
6 06/18/2019 01:45:29 -4.07, 178.12 06/18/2019 01:38:19 -4.24, 177.32 90.61 430
7 06/20/2019 16:25:08 3.42, -42.87 06/20/2019 16:15:54 3.33, -43.23 41.48 554
8 06/20/2019 17:13:14 1.15, 125.76 06/20/2019 17:05:16 1.30, 125.13 71.58 478
9 06/23/2019 07:52:56 -6.52, -95.27 06/23/2019 07:42:56 -6.56, -95.49 24.23 600
10 06/23/2019 08:41:09 1.79, 73.36 06/23/2019 08:32:22 1.67, 72.91 51.85 527
11 06/23/2019 09:29:15 2.79,-118.01 06/23/2019 09:21:44 2.96,-118.73 81.74 451
12 06/26/2019 00:08:52 -4.64, 21.01 06/25/2019 23:59:18 -4.61, 20.72 32.40 574
13 06/26/2019 00:57:08 0.11,-170.40 06/26/2019 00:48:49 0.01,-170.95 62.13 499
14 06/26/2019 01:45:15 4.42, -1.78 06/26/2019 01:38:11 4.62, -2.59 91.83 424
15 06/28/2019 15:42:57 29.94, -36.58 06/28/2019 15:32:57 30.63, -37.18 95.58 600
16 06/28/2019 16:24:53 -3.02, 137.24 06/28/2019 16:15:46 -2.95, 136.86 42.66 547
17 06/28/2019 17:13:09 -1.52, -54.18 06/28/2019 17:05:17 -1.64, -54.82 72.40 472




NCC Satellite Simultaneous Nadir Overpasses (SNOs) Prediction Service
